Location: St. Louis
(38.6270°N, 90.1994°W)
Time: 19:54:19
(UTC-06:00)

Vanguard 3 - Pass Details

Date: 07 December 2021
Orbit: 508 x 3260 km, 33.3° (Epoch: 19 January)

Event Time Altitude Azimuth Distance (km) Brightness Sun altitude
Exits shadow 23:56:03 12° 90° (E) 6,062 11.5 -74.1°
Drops below altitude 10° 23:56:59 10° 88° (E) 6,201 11.6 -74.1°
Sets 00:03:04 0° 78° (ENE) 7,170 12.0 -74.0°
